| time (UTC) | temp C | wind direction | speed KPH | gust KPH | rain 1hr cm | rain 24hr cm | rain mn cm | humidity % | barometer mb |
| 20260906232344 | 35 | 127 | 8.0 | 14.5 | 0.00 | 0.00 | 0.00 | 53 | 1011.6 |
| 20260906231327 | 36 | 133 | 6.4 | 12.9 | 0.00 | 0.00 | 0.00 | 52 | 1011.7 |
| 20260906230347 | 36 | 125 | 8.0 | 14.5 | 0.00 | 0.00 | 0.00 | 51 | 1011.7 |
| 20260906225329 | 36 | 110 | 4.8 | 16.1 | 0.00 | 0.00 | 0.00 | 51 | 1011.7 |
| 20260906224340 | 36 | 151 | 4.8 | 19.3 | 0.00 | 0.00 | 0.00 | 50 | 1011.7 |
| 20260906223332 | 36 | 229 | 3.2 | 9.7 | 0.00 | 0.00 | 0.00 | 48 | 1011.6 |
| 20260906222321 | 36 | 146 | 3.2 | 14.5 | 0.00 | 0.00 | 0.00 | 49 | 1011.7 |
| 20260906221332 | 36 | 161 | 4.8 | 14.5 | 0.00 | 0.00 | 0.00 | 49 | 1011.8 |
| 20260906220322 | 36 | 155 | 4.8 | 11.3 | 0.00 | 0.00 | 0.00 | 47 | 1012.0 |
| 20260906215332 | 36 | 276 | 3.2 | 11.3 | 0.00 | 0.00 | 0.00 | 49 | 1012.0 |
| 20260906214322 | 36 | 155 | 1.6 | 8.0 | 0.00 | 0.00 | 0.00 | 49 | 1012.0 |
| 20260906213330 | 36 | 230 | 3.2 | 11.3 | 0.00 | 0.00 | 0.00 | 49 | 1012.3 |
| 20260906212341 | 35 | 127 | 0.0 | 6.4 | 0.00 | 0.00 | 0.00 | 51 | 1012.4 |
| 20260906211332 | 35 | 121 | 0.0 | 4.8 | 0.00 | 0.00 | 0.00 | 52 | 1012.6 |
| 20260906210323 | 35 | 105 | 1.6 | 8.0 | 0.00 | 0.00 | 0.00 | 52 | 1012.7 |
| 20260906205334 | 35 | 93 | 1.6 | 8.0 | 0.00 | 0.00 | 0.00 | 50 | 1012.8 |
| 20260906204345 | 35 | 205 | 0.0 | 9.7 | 0.00 | 0.00 | 0.00 | 51 | 1012.9 |
| 20260906203335 | 35 | 136 | 3.2 | 12.9 | 0.00 | 0.00 | 0.00 | 51 | 1013.0 |
| 20260906202343 | 35 | 109 | 0.0 | 3.2 | 0.00 | 0.00 | 0.00 | 52 | 1013.1 |
| 20260906201324 | 34 | 109 | 1.6 | 6.4 | 0.00 | 0.00 | 0.00 | 52 | 1013.2 |
| 20260906200344 | 35 | 121 | 3.2 | 11.3 | 0.00 | 0.00 | 0.00 | 54 | 1013.3 |
| 20260906195325 | 35 | 120 | 1.6 | 9.7 | 0.00 | 0.00 | 0.00 | 54 | 1013.4 |
| 20260906194335 | 34 | 90 | 4.8 | 12.9 | 0.00 | 0.00 | 0.00 | 57 | 1013.5 |
| 20260906193326 | 34 | 6 | 8.0 | 16.1 | 0.00 | 0.00 | 0.00 | 55 | 1013.5 |
| 20260906192337 | 35 | 127 | 3.2 | 6.4 | 0.00 | 0.00 | 0.00 | 54 | 1013.9 |
| 20260906191328 | 35 | 70 | 4.8 | 11.3 | 0.00 | 0.00 | 0.00 | 52 | 1013.9 |
| 20260906190335 | 36 | 98 | 4.8 | 9.7 | 0.00 | 0.00 | 0.00 | 50 | 1014.0 |
| 20260906185328 | 35 | 290 | 1.6 | 6.4 | 0.00 | 0.00 | 0.00 | 52 | 1014.0 |
| 20260906184339 | 35 | 194 | 4.8 | 6.4 | 0.00 | 0.00 | 0.00 | 52 | 1014.1 |
| 20260906183330 | 35 | 133 | 3.2 | 9.7 | 0.00 | 0.00 | 0.00 | 51 | 1014.3 |
| 20260906182341 | 35 | 91 | 1.6 | 6.4 | 0.00 | 0.00 | 0.00 | 51 | 1014.4 |
| 20260906181332 | 35 | 127 | 1.6 | 12.9 | 0.00 | 0.00 | 0.00 | 53 | 1014.5 |
| 20260906180322 | 34 | 117 | 1.6 | 11.3 | 0.00 | 0.00 | 0.00 | 57 | 1014.8 |
| 20260906175333 | 34 | 229 | 3.2 | 11.3 | 0.00 | 0.00 | 0.00 | 61 | 1015.0 |
| 20260906174344 | 33 | 245 | 3.2 | 9.7 | 0.00 | 0.00 | 0.00 | 63 | 1015.2 |
| 20260906173335 | 33 | 98 | 4.8 | 14.5 | 0.00 | 0.00 | 0.00 | 64 | 1015.4 |
| 20260906172346 | 33 | 113 | 3.2 | 9.7 | 0.00 | 0.00 | 0.00 | 67 | 1015.5 |
| 20260906171327 | 33 | 145 | 4.8 | 11.3 | 0.00 | 0.00 | 0.00 | 67 | 1015.7 |
| 20260906170347 | 32 | 232 | 3.2 | 11.3 | 0.00 | 0.00 | 0.00 | 69 | 1015.8 |
| 20260906165329 | 32 | 168 | 6.4 | 9.7 | 0.00 | 0.00 | 0.00 | 68 | 1015.7 |
| 20260906164350 | 31 | 198 | 1.6 | 9.7 | 0.00 | 0.00 | 0.00 | 72 | 1015.9 |
| 20260906163330 | 31 | 101 | 3.2 | 8.0 | 0.00 | 0.00 | 0.00 | 73 | 1016.0 |
| 20260906162340 | 31 | 143 | 0.0 | 1.6 | 0.00 | 0.00 | 0.00 | 72 | 1016.0 |
| 20260906161330 | 30 | 143 | 1.6 | 4.8 | 0.00 | 0.00 | 0.00 | 73 | 1016.1 |
| 20260906160321 | 30 | 103 | 3.2 | 9.7 | 0.00 | 0.00 | 0.00 | 75 | 1016.1 |
| 20260906155331 | 30 | 102 | 1.6 | 4.8 | 0.00 | 0.00 | 0.00 | 77 | 1015.9 |
| 20260906154321 | 30 | 82 | 1.6 | 4.8 | 0.00 | 0.00 | 0.00 | 76 | 1015.9 |
| 20260906153332 | 30 | 113 | 0.0 | 6.4 | 0.00 | 0.00 | 0.00 | 75 | 1015.7 |
| 20260906152322 | 30 | 148 | 0.0 | 3.2 | 0.00 | 0.00 | 0.00 | 76 | 1015.5 |
| 20260906151333 | 29 | 83 | 1.6 | 4.8 | 0.00 | 0.00 | 0.00 | 78 | 1015.4 |
| 20260906150324 | 28 | 108 | 0.0 | 4.8 | 0.00 | 0.00 | 0.00 | 79 | 1015.3 |
| 20260906145335 | 28 | 115 | 0.0 | 3.2 | 0.00 | 0.00 | 0.00 | 80 | 1015.3 |
| 20260906144341 | 28 | 124 | 1.6 | 4.8 | 0.00 | 0.00 | 0.00 | 80 | 1015.2 |
| 20260906143332 | 28 | 142 | 1.6 | 4.8 | 0.00 | 0.00 | 0.00 | 80 | 1015.2 |
| 20260906142342 | 28 | 129 | 0.0 | 3.2 | 0.00 | 0.00 | 0.00 | 82 | 1015.2 |
| 20260906141352 | 27 | 131 | 1.6 | 4.8 | 0.00 | 0.00 | 0.00 | 83 | 1015.1 |
| 20260906140339 | 27 | 127 | 0.0 | 1.6 | 0.00 | 0.00 | 0.00 | 85 | 1015.0 |
| 20260906135349 | 27 | 127 | 0.0 | 3.2 | 0.00 | 0.00 | 0.00 | 86 | 1015.0 |
| 20260906134349 | 27 | 237 | 0.0 | 1.6 | 0.00 | 0.00 | 0.00 | 86 | 1014.8 |
| 20260906133336 | 27 | 237 | 0.0 | 1.6 | 0.00 | 0.00 | 0.00 | 86 | 1014.7 |
| 20260906132342 | 26 | 237 | 0.0 | 1.6 | 0.00 | 0.00 | 0.00 | 86 | 1014.7 |
| 20260906131350 | 26 | 237 | 0.0 | 3.2 | 0.00 | 0.00 | 0.00 | 85 | 1014.5 |
| 20260906130335 | 26 | 240 | 0.0 | 0.0 | 0.00 | 0.00 | 0.00 | 86 | 1014.4 |
| 20260906125345 | 26 | 240 | 0.0 | 0.0 | 0.00 | 0.00 | 0.00 | 86 | 1014.3 |
| 20260906124333 | 26 | 240 | 0.0 | 0.0 | 0.00 | 0.00 | 0.00 | 89 | 1014.1 |
| 20260906123333 | 25 | 240 | 0.0 | 0.0 | 0.00 | 0.00 | 0.00 | 90 | 1014.1 |
| 20260906122336 | 25 | 240 | 0.0 | 0.0 | 0.00 | 0.00 | 0.00 | 91 | 1014.0 |
| 20260906121343 | 25 | 240 | 0.0 | 0.0 | 0.00 | 0.00 | 0.00 | 92 | 1013.7 |
| 20260906120341 | 25 | 240 | 0.0 | 0.0 | 0.00 | 0.00 | 0.00 | 91 | 1013.5 |
| 20260906115343 | 25 | 240 | 0.0 | 0.0 | 0.00 | 0.00 | 0.00 | 91 | 1013.3 |
| 20260906114325 | 25 | 240 | 0.0 | 0.0 | 0.00 | 0.00 | 0.00 | 90 | 1013.1 |
| 20260906113321 | 25 | 240 | 0.0 | 0.0 | 0.00 | 0.00 | 0.00 | 90 | 1013.1 |
| 20260906112327 | 25 | 240 | 0.0 | 0.0 | 0.00 | 0.00 | 0.00 | 89 | 1013.0 |
| 20260906111332 | 25 | 240 | 0.0 | 0.0 | 0.00 | 0.00 | 0.00 | 88 | 1012.9 |
| 20260906110339 | 25 | 240 | 0.0 | 0.0 | 0.00 | 0.00 | 0.00 | 88 | 1012.8 |
| 20260906105330 | 26 | 240 | 0.0 | 1.6 | 0.00 | 0.00 | 0.00 | 86 | 1013.0 |
| 20260906104341 | 26 | 240 | 0.0 | 0.0 | 0.00 | 0.00 | 0.00 | 86 | 1012.9 |
| 20260906103331 | 26 | 240 | 0.0 | 1.6 | 0.00 | 0.00 | 0.00 | 85 | 1012.7 |
| 20260906102322 | 26 | 240 | 0.0 | 0.0 | 0.00 | 0.00 | 0.00 | 85 | 1012.7 |
| 20260906101332 | 26 | 240 | 0.0 | 0.0 | 0.00 | 0.00 | 0.00 | 84 | 1012.6 |
| 20260906100322 | 26 | 240 | 0.0 | 0.0 | 0.00 | 0.00 | 0.00 | 83 | 1012.5 |
| 20260906095332 | 26 | 240 | 0.0 | 1.6 | 0.00 | 0.00 | 0.00 | 82 | 1012.7 |
| 20260906094323 | 27 | 240 | 0.0 | 3.2 | 0.00 | 0.00 | 0.00 | 82 | 1012.6 |
| 20260906093333 | 27 | 229 | 1.6 | 4.8 | 0.00 | 0.00 | 0.00 | 82 | 1012.5 |
| 20260906092325 | 27 | 240 | 0.0 | 3.2 | 0.00 | 0.00 | 0.00 | 81 | 1012.6 |
| 20260906091335 | 27 | 254 | 0.0 | 4.8 | 0.00 | 0.00 | 0.00 | 81 | 1012.5 |
| 20260906090346 | 27 | 218 | 0.0 | 4.8 | 0.00 | 0.00 | 0.00 | 81 | 1012.5 |
| 20260906085337 | 27 | 241 | 0.0 | 3.2 | 0.00 | 0.00 | 0.00 | 81 | 1012.5 |
| 20260906084346 | 27 | 225 | 1.6 | 6.4 | 0.00 | 0.00 | 0.00 | 80 | 1012.5 |
| 20260906083327 | 27 | 150 | 1.6 | 6.4 | 0.00 | 0.00 | 0.00 | 80 | 1012.6 |
| 20260906082347 | 27 | 207 | 3.2 | 8.0 | 0.00 | 0.00 | 0.00 | 80 | 1012.5 |
| 20260906081329 | 28 | 127 | 1.6 | 9.7 | 0.00 | 0.00 | 0.00 | 80 | 1012.6 |
| 20260906080334 | 28 | 205 | 1.6 | 12.9 | 0.00 | 0.00 | 0.00 | 80 | 1012.6 |
| 20260906075324 | 28 | 238 | 3.2 | 8.0 | 0.00 | 0.00 | 0.00 | 80 | 1012.6 |
| 20260906074330 | 28 | 156 | 1.6 | 6.4 | 0.00 | 0.00 | 0.00 | 80 | 1012.9 |
| 20260906073340 | 28 | 184 | 4.8 | 9.7 | 0.00 | 0.00 | 0.00 | 80 | 1013.0 |
| 20260906072332 | 28 | 207 | 1.6 | 6.4 | 0.00 | 0.00 | 0.00 | 80 | 1013.1 |
| 20260906071322 | 28 | 208 | 1.6 | 4.8 | 0.00 | 0.00 | 0.00 | 80 | 1013.2 |
| 20260906070330 | 28 | 170 | 3.2 | 11.3 | 0.00 | 0.00 | 0.00 | 80 | 1013.3 |
| 20260906065340 | 28 | 154 | 3.2 | 8.0 | 0.00 | 0.00 | 0.00 | 80 | 1013.4 |
| 20260906064331 | 28 | 207 | 0.0 | 4.8 | 0.00 | 0.00 | 0.00 | 80 | 1013.4 |
| 20260906063338 | 28 | 146 | 1.6 | 6.4 | 0.00 | 0.00 | 0.00 | 80 | 1013.7 |
| 20260906062329 | 28 | 155 | 0.0 | 4.8 | 0.00 | 0.00 | 0.00 | 79 | 1013.5 |
| 20260906061340 | 28 | 141 | 1.6 | 6.4 | 0.00 | 0.00 | 0.00 | 79 | 1013.4 |
| 20260906060331 | 28 | 146 | 1.6 | 4.8 | 0.00 | 0.00 | 0.00 | 79 | 1013.5 |
| 20260906055323 | 28 | 161 | 0.0 | 1.6 | 0.00 | 0.00 | 0.00 | 79 | 1013.9 |
| 20260906054332 | 28 | 161 | 0.0 | 4.8 | 0.00 | 0.00 | 0.00 | 79 | 1013.8 |
| 20260906053342 | 28 | 153 | 0.0 | 4.8 | 0.00 | 0.00 | 0.00 | 78 | 1013.6 |
| 20260906052333 | 28 | 153 | 0.0 | 3.2 | 0.00 | 0.00 | 0.00 | 78 | 1013.7 |
| 20260906051344 | 28 | 119 | 0.0 | 3.2 | 0.00 | 0.00 | 0.00 | 78 | 1013.8 |
| 20260906050326 | 28 | 155 | 3.2 | 9.7 | 0.00 | 0.00 | 0.00 | 78 | 1013.8 |
| 20260906045346 | 28 | 139 | 3.2 | 9.7 | 0.00 | 0.00 | 0.00 | 77 | 1014.0 |
| 20260906044328 | 28 | 101 | 3.2 | 8.0 | 0.00 | 0.00 | 0.00 | 77 | 1014.0 |
| 20260906043339 | 28 | 141 | 1.6 | 8.0 | 0.00 | 0.00 | 0.00 | 76 | 1013.9 |
| 20260906042329 | 28 | 139 | 1.6 | 9.7 | 0.00 | 0.00 | 0.00 | 76 | 1013.8 |
| 20260906041340 | 28 | 123 | 1.6 | 6.4 | 0.00 | 0.00 | 0.00 | 75 | 1013.7 |
| 20260906040332 | 28 | 104 | 1.6 | 9.7 | 0.00 | 0.00 | 0.00 | 74 | 1013.5 |
| 20260906035322 | 29 | 92 | 1.6 | 8.0 | 0.00 | 0.00 | 0.00 | 73 | 1013.7 |
| 20260906034332 | 29 | 118 | 1.6 | 9.7 | 0.00 | 0.00 | 0.00 | 72 | 1013.7 |
| 20260906033323 | 29 | 113 | 6.4 | 17.7 | 0.00 | 0.00 | 0.00 | 71 | 1013.5 |
| 20260906032330 | 30 | 79 | 4.8 | 12.9 | 0.00 | 0.00 | 0.00 | 70 | 1013.7 |
| 20260906031340 | 30 | 99 | 6.4 | 12.9 | 0.00 | 0.00 | 0.00 | 70 | 1013.6 |
| 20260906030332 | 30 | 76 | 6.4 | 16.1 | 0.00 | 0.00 | 0.00 | 69 | 1013.4 |
| 20260906025342 | 30 | 63 | 8.0 | 16.1 | 0.00 | 0.00 | 0.00 | 67 | 1013.2 |
| 20260906024333 | 30 | 109 | 9.7 | 17.7 | 0.00 | 0.00 | 0.00 | 65 | 1012.9 |
| 20260906023343 | 31 | 77 | 4.8 | 17.7 | 0.00 | 0.00 | 0.00 | 63 | 1012.7 |
| 20260906022325 | 31 | 83 | 6.4 | 16.1 | 0.00 | 0.00 | 0.00 | 62 | 1012.6 |
| 20260906021346 | 31 | 116 | 6.4 | 16.1 | 0.00 | 0.00 | 0.00 | 61 | 1012.4 |
| 20260906020325 | 31 | 98 | 8.0 | 20.9 | 0.00 | 0.00 | 0.00 | 61 | 1012.3 |
| 20260906015345 | 31 | 86 | 11.3 | 17.7 | 0.00 | 0.00 | 0.00 | 61 | 1012.1 |
| 20260906014327 | 32 | 84 | 4.8 | 20.9 | 0.00 | 0.00 | 0.00 | 60 | 1011.9 |
| 20260906013337 | 32 | 65 | 6.4 | 17.7 | 0.00 | 0.00 | 0.00 | 59 | 1011.8 |
| 20260906012328 | 32 | 77 | 8.0 | 17.7 | 0.00 | 0.00 | 0.00 | 59 | 1011.7 |
| 20260906011339 | 32 | 93 | 8.0 | 16.1 | 0.00 | 0.00 | 0.00 | 59 | 1011.6 |
| 20260906010330 | 33 | 73 | 6.4 | 24.1 | 0.00 | 0.00 | 0.00 | 58 | 1011.6 |
| 20260906005341 | 33 | 91 | 9.7 | 19.3 | 0.00 | 0.00 | 0.00 | 57 | 1011.5 |
| 20260906004332 | 33 | 79 | 8.0 | 19.3 | 0.00 | 0.00 | 0.00 | 57 | 1011.6 |
| 20260906003321 | 34 | 75 | 6.4 | 19.3 | 0.00 | 0.00 | 0.00 | 56 | 1011.6 |
| 20260906002332 | 34 | 96 | 12.9 | 25.7 | 0.00 | 0.00 | 0.00 | 56 | 1011.3 |
| 20260906001323 | 35 | 75 | 11.3 | 22.5 | 0.00 | 0.00 | 0.00 | 54 | 1011.3 |
| 20260906000334 | 35 | 71 | 9.7 | 16.1 | 0.00 | 0.00 | 0.00 | 54 | 1011.4 |
| 20260905235325 | 35 | 59 | 11.3 | 22.5 | 0.00 | 0.00 | 0.00 | 53 | 1011.3 |
| 20260905234336 | 36 | 68 | 8.0 | 14.5 | 0.00 | 0.00 | 0.00 | 48 | 1011.1 |
| 20260905233347 | 37 | 135 | 1.6 | 8.0 | 0.00 | 0.00 | 0.00 | 45 | 1011.0 |